Regional Weather Roundup
Issued by NWS Sioux Falls, SD

Home | Current Version | Previous Version | Graphics & Text | Print | Product List | Glossary On
Versions: 1 2 3 4 5 6 7 8 9 10 11 12 13 14 15 16 17 18 19 20 21 22 23 24 25 26 27 28 29 30 31 32 33 34 35 36 37 38 39 40 41 42 43 44 45 46 47 48 49 50
000
ASUS43 KFSD 051202
RWRFSD

WEATHER ROUNDUP FOR SE SOUTH DAKOTA/SW MINNESOTA/NW IOWA
NATIONAL WEATHER SERVICE SIOUX FALLS SD
700 AM CDT THU MAY 05 2016

NOTE: "FAIR" INDICATES FEW OR NO CLOUDS BELOW 12,000 FEET WITH NO
SIGNIFICANT WEATHER AND OR OBSTRUCTIONS TO VISIBILITY.


SDZ038>040-050-052>070-051300-
SOUTHEAST SOUTH DAKOTA

CITY           SKY/WX    TMP DP  RH WIND       PRES   REMARKS
BROOKINGS      CLEAR     41  35  79 CALM      30.03R
CHAMBERLAIN    NOT AVBL
HURON          CLEAR     45  40  82 MISG      30.00S
6HR MIN TEMP:  42; 6HR MAX TEMP:  50;

MADISON        FAIR      45  36  70 SW6       30.03S
MITCHELL       CLEAR     44  40  85 SE3       30.03R
6HR MIN TEMP:  44; 6HR MAX TEMP:  54;

SIOUX FALLS    PTCLDY    41  37  86 CALM      30.04S
6HR MIN TEMP:  38; 6HR MAX TEMP:  46;

WINNER         FAIR      54  37  52 SW8       30.03S
YANKTON        CLEAR     43  37  81 CALM      30.05R
$$

MNZ071-072-080-081-089-090-097-098-051300-
SOUTHWEST MINNESOTA

CITY           SKY/WX    TMP DP  RH WIND       PRES   REMARKS
FAIRMONT       CLEAR     41  32  70 S6        30.04R
JACKSON        CLEAR     43  34  70 SW3       30.04S
LUVERNE        CLEAR     37  34  87 CALM      30.05R
MARSHALL       CLEAR     44  33  65 S5        30.02R
6HR MIN TEMP:  41; 6HR MAX TEMP:  47;

MONTEVIDEO     CLEAR     45  36  70 SW5       30.02S
PIPESTONE      CLEAR     45  32  61 CALM      30.04R
REDWOOD FALLS  CLEAR     41  31  67 S3        30.02R
TRACY          CLEAR     48  36  61 SW10      30.02S
WINDOM         CLEAR     39  36  87 CALM      30.03S
WORTHINGTON    CLEAR     44  35  70 SW6       30.05R
$$

IAZ001>003-012>014-020>022-031-032-NEZ013-014-SDZ071-051300-
NORTHWEST IOWA

CITY           SKY/WX    TMP DP  RH WIND       PRES   REMARKS
DENISON        CLEAR     39  37  93 CALM      30.05R
ESTHERVILLE    CLEAR     40  36  86 S3        30.04R
SIOUX CITY     CLEAR     42  37  82 CALM      30.07R
6HR MIN TEMP:  37; 6HR MAX TEMP:  47;

SPENCER        CLEAR     37  34  89 W3        30.05R
6HR MIN TEMP:  36; 6HR MAX TEMP:  45;

STORM LAKE     CLEAR     45  34  65 S3        30.06R
$$

ABBREVIATIONS USED IN REMARKS
   TC - TEMPERATURE IN CELSIUS
  WCI - WIND CHILL INDEX
   HX - HEAT INDEX
  VSB - VISIBILITY




USA.gov is the U.S. government's official web portal to all federal, state and local government web resources and services.